Location: Hanover
(52.3667°N, 9.7167°E)
Time: 11:57:58
(UTC+02:00)

ISS - Visible Passes

Search period start: 20 September 2024 00:00
Search period end: 30 September 2024 00:00
Orbit: 413 x 423 km, 51.6° (Epoch: 20 September)

Date Brightness Start Highest point End Pass type
(mag) Time Alt. Az. Time Alt. Az. Time Alt. Az.
20 Sep -3.8 20:44:07 10° W 20:47:28 81° S 20:49:13 26° E visible
20 Sep -1.4 22:20:53 10° W 22:22:09 20° W 22:22:09 20° W visible
21 Sep -3.7 19:56:18 10° W 19:59:39 78° S 20:03:01 10° E visible
21 Sep -3.4 21:33:02 10° W 21:36:04 57° SW 21:36:04 57° SW visible
22 Sep -3.7 20:45:11 10° W 20:48:32 72° S 20:49:58 31° ESE visible
22 Sep -1.0 22:22:05 10° W 22:22:54 15° W 22:22:54 15° W visible
23 Sep -3.7 19:57:17 10° W 20:00:39 79° S 20:03:51 11° E visible
23 Sep -2.6 21:34:05 10° W 21:36:46 36° SW 21:36:46 36° SW visible
24 Sep -3.3 20:46:06 10° W 20:49:23 50° SSW 20:50:38 31° SE visible
25 Sep -3.5 19:58:07 10° W 20:01:27 62° SSW 20:04:29 12° ESE visible
25 Sep -1.7 21:35:11 10° W 21:37:25 21° SW 21:37:25 21° SW visible
26 Sep -2.3 20:46:59 10° W 20:49:57 29° SSW 20:51:17 22° SSE visible
27 Sep -2.7 19:58:51 10° W 20:02:00 39° SSW 20:05:09 10° SE visible
27 Sep -0.9 21:37:15 10° WSW 21:38:05 11° SW 21:38:07 11° SW visible
28 Sep -1.2 20:48:07 10° WSW 20:50:13 16° SW 20:52:03 11° S visible
29 Sep -1.6 19:59:37 10° W 20:02:16 22° SSW 20:04:55 10° SSE visible
